マクミラン彗星

208P/McMillan (2024)

English version
Home page
Updated on September 4, 2024

---------------------------------------------------------------------

・ プロフィール

・ 写真集

・ 軌道要素

Epoch 2024 Oct. 17.0 TT = JDT 2460600.5
T 2024 Aug. 23.96577 TT                                 Rudenko
q   2.5286527            (2000.0)            P               Q
n   0.12145698     Peri.  310.69542     +0.97315784     +0.22557901
a   4.0381992      Node    36.33498     -0.18105047     +0.87269380
e   0.3738167      Incl.    4.41241     -0.14207235     +0.43303539
P   8.11
>From 161 observations 2016 July 29-2024 Aug. 31, mean residual 0".7.

・ 光度変化

        m1 = 13.5 + 5 logΔ + 10.0 log r

---------------------------------------------------------------------

軌道要素はM.P.E.C. 2024-R10に掲載されたものです。
光度グラフはComet for Windowsで作成したものです。

---------------------------------------------------------------------

Copyright(C) Seiichi Yoshida (comet@aerith.net). All rights reserved.